User: anonymous   Login
Location: Pradons
(44.4746°N, 4.3578°E)
Time: 00:48:35
(UTC+00:00)
Language:

Cosmos 1703 - Orbit

View from above orbital plane
View from above orbital plane
View from above satellite
View from above satellite

Ground track
Ground track

The orbit data is extracted from the following two-line orbital elements,

1 16262U 85108A   20188.50111785 -.00000214 +00000-0 -14524-4 0  9995
2 16262 082.4776 233.6461 0012722 045.4725 314.7542 15.11302028887045
Epoch (UTC): 06 July 2020 12:01:36
Eccentricity: 0.0012722
inclination: 82.4776°
perigee height: 523 km
apogee height: 541 km
right ascension of ascending node: 233.6461°
argument of perigee: 45.4725°
revolutions per day: 15.11302028
mean anomaly at epoch: 314.7542°
orbit number at epoch: 88704

The dashed part of the orbit path shows where the satellite is in the earth's shadow,  

DLR